| time (UTC) | temp C | wind direction | speed KPH | gust KPH | rain 1hr cm | rain 24hr cm | rain mn cm | humidity % | barometer mb |
| 20260505193042 | 13 | 359 | 0.0 | 3.2 | 0.00 | 2.34 | 2.13 | 94 | 1012.9 |
| 20260505191538 | 13 | 136 | 0.0 | 6.4 | 0.00 | 2.34 | 2.13 | 94 | 1012.6 |
| 20260505190037 | 13 | 349 | 0.0 | 4.8 | 0.00 | 2.34 | 2.13 | 94 | 1012.5 |
| 20260505184537 | 13 | 39 | 0.0 | 1.6 | 0.00 | 2.57 | 2.13 | 93 | 1012.8 |
| 20260505183047 | 13 | 98 | 0.0 | 4.8 | 0.00 | 2.57 | 2.13 | 93 | 1012.9 |
| 20260505181535 | 14 | 88 | 1.6 | 6.4 | 0.00 | 2.57 | 2.13 | 92 | 1012.8 |
| 20260505180034 | 14 | 244 | 0.0 | 3.2 | 0.00 | 2.57 | 2.13 | 92 | 1012.5 |
| 20260505174535 | 14 | 132 | 0.0 | 4.8 | 0.00 | 2.69 | 2.13 | 91 | 1012.8 |
| 20260505173034 | 15 | 107 | 1.6 | 9.7 | 0.00 | 2.69 | 2.13 | 91 | 1012.8 |
| 20260505171533 | 15 | 219 | 1.6 | 4.8 | 0.00 | 2.69 | 2.13 | 89 | 1012.9 |
| 20260505170032 | 15 | 268 | 0.0 | 0.0 | 0.00 | 2.69 | 2.13 | 87 | 1012.8 |
| 20260505164550 | 16 | 141 | 0.0 | 0.0 | 0.00 | 2.74 | 2.13 | 86 | 1012.9 |
| 20260505163030 | 15 | 105 | 0.0 | 6.4 | 0.00 | 2.74 | 2.13 | 88 | 1012.8 |
| 20260505161535 | 15 | 127 | 0.0 | 8.0 | 0.00 | 2.74 | 2.13 | 88 | 1013.1 |
| 20260505153029 | 16 | 108 | 4.8 | 12.9 | 0.00 | 2.74 | 2.13 | 88 | 1013.0 |
| 20260505151527 | 16 | 116 | 3.2 | 12.9 | 0.00 | 2.74 | 2.13 | 87 | 1012.9 |
| 20260505124518 | 15 | 154 | 6.4 | 11.3 | 0.00 | 2.74 | 2.13 | 94 | 1013.5 |
| 20260505123012 | 15 | 49 | 0.0 | 1.6 | 0.00 | 2.74 | 2.13 | 95 | 1013.5 |
| 20260505121510 | 14 | 95 | 3.2 | 6.4 | 0.00 | 2.74 | 2.13 | 95 | 1013.3 |
| 20260505120009 | 14 | 97 | 4.8 | 9.7 | 0.00 | 2.74 | 2.13 | 95 | 1013.5 |
| 20260505114510 | 14 | 133 | 4.8 | 17.7 | 0.00 | 2.74 | 2.13 | 95 | 1013.5 |
| 20260505113009 | 14 | 146 | 4.8 | 9.7 | 0.00 | 2.74 | 2.13 | 95 | 1013.5 |
| 20260505111510 | 14 | 136 | 6.4 | 11.3 | 0.00 | 2.74 | 2.13 | 95 | 1013.5 |
| 20260505101502 | 13 | 82 | 1.6 | 4.8 | 0.03 | 2.74 | 2.13 | 95 | 1013.6 |
| 20260505094601 | 13 | 35 | 0.0 | 1.6 | 0.23 | 2.74 | 2.13 | 96 | 1013.9 |
| 20260505093106 | 13 | 97 | 0.0 | 4.8 | 0.33 | 2.72 | 2.11 | 96 | 1013.8 |
| 20260505091558 | 13 | 131 | 1.6 | 6.4 | 0.33 | 2.72 | 2.11 | 96 | 1013.5 |
| 20260505090058 | 12 | 92 | 1.6 | 3.2 | 0.33 | 2.72 | 2.11 | 96 | 1013.4 |
| 20260505084558 | 13 | 271 | 0.0 | 6.4 | 0.15 | 2.51 | 1.93 | 95 | 1013.5 |
| 20260505083103 | 13 | 100 | 6.4 | 11.3 | 0.03 | 2.39 | 1.80 | 94 | 1013.2 |
| 20260505081557 | 13 | 90 | 0.0 | 6.4 | 0.03 | 2.39 | 1.80 | 96 | 1013.2 |
| 20260505080111 | 13 | 286 | 0.0 | 4.8 | 0.00 | 2.39 | 1.78 | 96 | 1013.1 |
| 20260505074555 | 13 | 246 | 0.0 | 1.6 | 0.00 | 2.39 | 1.78 | 96 | 1013.1 |
| 20260505073100 | 13 | 82 | 0.0 | 3.2 | 0.00 | 2.39 | 1.78 | 96 | 1013.0 |
| 20260505071553 | 13 | 109 | 0.0 | 0.0 | 0.00 | 2.39 | 1.78 | 96 | 1013.0 |
| 20260505070054 | 13 | 101 | 0.0 | 3.2 | 0.00 | 2.39 | 1.78 | 96 | 1013.0 |
| 20260505064600 | 13 | 101 | 0.0 | 3.2 | 0.00 | 2.39 | 1.78 | 96 | 1012.8 |
| 20260505063100 | 13 | 81 | 1.6 | 6.4 | 0.03 | 2.39 | 1.78 | 96 | 1012.8 |
| 20260505061556 | 13 | 125 | 3.2 | 8.0 | 0.38 | 2.39 | 1.78 | 96 | 1012.5 |
| 20260505060051 | 13 | 3 | 1.6 | 4.8 | 0.38 | 2.39 | 1.78 | 96 | 1012.3 |
| 20260505054548 | 12 | 81 | 0.0 | 6.4 | 0.38 | 2.39 | 1.78 | 96 | 1012.2 |
| 20260505053109 | 12 | 25 | 1.6 | 4.8 | 0.36 | 2.36 | 1.75 | 95 | 1012.1 |
| 20260505051545 | 13 | 272 | 1.6 | 9.7 | 0.00 | 2.01 | 1.40 | 94 | 1012.2 |
| 20260505041545 | 13 | 57 | 0.0 | 6.4 | 0.00 | 2.01 | 1.40 | 92 | 1011.8 |
| 20260505040043 | 13 | 68 | 4.8 | 9.7 | 0.00 | 2.01 | 1.40 | 92 | 1011.7 |
| 20260505034552 | 12 | 292 | 1.6 | 6.4 | 0.00 | 2.01 | 1.40 | 93 | 1011.9 |
| 20260505033050 | 12 | 333 | 0.0 | 6.4 | 0.00 | 2.01 | 1.40 | 95 | 1011.9 |
| 20260505031541 | 12 | 262 | 1.6 | 3.2 | 0.00 | 2.01 | 1.40 | 94 | 1012.2 |
| 20260505030039 | 12 | 50 | 1.6 | 9.7 | 0.00 | 2.01 | 1.40 | 93 | 1012.1 |
| 20260505024537 | 13 | 60 | 1.6 | 4.8 | 0.03 | 2.01 | 1.40 | 92 | 1012.3 |
| 20260505023038 | 13 | 48 | 4.8 | 14.5 | 0.18 | 2.01 | 1.40 | 91 | 1012.3 |
| 20260505021533 | 12 | 39 | 3.2 | 11.3 | 0.51 | 2.01 | 1.40 | 95 | 1012.5 |
| 20260505020031 | 12 | 56 | 0.0 | 12.9 | 0.71 | 2.01 | 1.40 | 94 | 1013.0 |
| 20260505014530 | 12 | 17 | 0.0 | 3.2 | 0.79 | 1.98 | 1.37 | 96 | 1013.1 |
| 20260505013026 | 12 | 318 | 0.0 | 3.2 | 0.69 | 1.80 | 1.19 | 95 | 1013.5 |
| 20260505011544 | 12 | 338 | 0.0 | 8.0 | 0.46 | 1.45 | 0.89 | 94 | 1013.9 |
| 20260505010022 | 12 | 323 | 0.0 | 9.7 | 0.38 | 1.27 | 0.66 | 92 | 1013.8 |
| 20260505004522 | 12 | 29 | 0.0 | 9.7 | 0.36 | 1.17 | 0.58 | 92 | 1013.9 |
| 20260505003020 | 12 | 25 | 3.2 | 17.7 | 0.38 | 1.12 | 0.51 | 93 | 1013.9 |
| 20260505001518 | 12 | 28 | 4.8 | 9.7 | 0.36 | 1.02 | 0.43 | 94 | 1014.3 |
| 20260505000015 | 12 | 68 | 0.0 | 0.0 | 0.23 | 0.89 | 0.28 | 93 | 1014.6 |
| 20260504234514 | 12 | 56 | 3.2 | 8.0 | 0.23 | 0.81 | 0.23 | 92 | 1014.4 |
| 20260504233011 | 12 | 315 | 0.0 | 0.0 | 0.15 | 0.71 | 0.15 | 90 | 1014.7 |
| 20260504231509 | 13 | 72 | 1.6 | 8.0 | 0.05 | 0.66 | 0.05 | 87 | 1014.8 |
| 20260504230006 | 13 | 46 | 6.4 | 16.1 | 0.05 | 0.64 | 0.05 | 85 | 1014.8 |
| 20260504224510 | 13 | 89 | 0.0 | 16.1 | 0.00 | 0.61 | 0.00 | 83 | 1014.9 |
| 20260504223002 | 13 | 26 | 6.4 | 14.5 | 0.00 | 0.61 | 0.00 | 83 | 1015.0 |
| 20260504221558 | 13 | 41 | 4.8 | 17.7 | 0.00 | 0.61 | 0.00 | 85 | 1015.4 |
| 20260504220055 | 13 | 23 | 4.8 | 14.5 | 0.00 | 0.61 | 0.00 | 87 | 1015.6 |
| 20260504214600 | 13 | 56 | 4.8 | 11.3 | 0.03 | 0.61 | 0.61 | 89 | 1015.7 |
| 20260504213053 | 12 | 37 | 1.6 | 4.8 | 0.03 | 0.61 | 0.61 | 92 | 1016.3 |
| 20260504211550 | 12 | 48 | 0.0 | 3.2 | 0.05 | 0.61 | 0.61 | 92 | 1016.5 |
| 20260504210050 | 12 | 34 | 1.6 | 6.4 | 0.05 | 0.61 | 0.61 | 93 | 1016.6 |
| 20260504204548 | 12 | 84 | 3.2 | 8.0 | 0.05 | 0.58 | 0.58 | 94 | 1016.6 |
| 20260504203050 | 12 | 1 | 0.0 | 3.2 | 0.05 | 0.58 | 0.58 | 94 | 1016.9 |
| 20260504201546 | 12 | 282 | 0.0 | 3.2 | 0.10 | 0.53 | 0.53 | 94 | 1017.0 |
| 20260504200047 | 12 | 354 | 0.0 | 0.0 | 0.15 | 0.53 | 0.53 | 94 | 1016.7 |
| 20260504194551 | 12 | 21 | 0.0 | 9.7 | 0.15 | 0.53 | 0.53 | 94 | 1016.6 |